Date,TemperatureHighF,TemperatureAvgF,TemperatureLowF,DewpointHighF,DewpointAvgF,DewpointLowF,HumidityHigh,HumidityAvg,HumidityLow,PressureMaxIn,PressureMinIn,WindSpeedMaxMPH,WindSpeedAvgMPH,GustSpeedMaxMPH,PrecipitationSumIn
2013-9-1,81.7,74.7,70.2,74.8,71.3,68.1,97,89,76,29.82,29.75,2,0,9,4.98
2013-9-2,82.6,73.7,71.6,77.7,71.4,69.8,97,92,77,29.79,29.64,2,0,12,1.63
2013-9-3,77.7,70.2,60.6,75.5,68.6,59.1,98,95,84,29.79,29.63,0,0,0,10.69
2013-9-4,84.6,67.6,55.2,63.4,58.4,54.4,99,77,43,29.89,29.78,0,0,2,0.74
2013-9-5,82.2,65.2,50.5,66.5,55.8,47.2,99,75,34,30.07,29.83,1,0,4,0.06
2013-9-6,79.3,58.7,46.6,51.8,47.3,43.1,96,71,32,30.20,30.07,4,0,9,0.02
2013-9-7,82.6,62.4,45.3,58.3,51.0,44.5,99,71,34,30.11,29.88,5,1,8,0.54
2013-9-8,84.6,67.6,51.3,63.6,55.4,42.7,96,69,30,30.07,29.76,7,2,12,1.67
2013-9-9,75.6,58.2,43.5,51.9,46.5,41.6,96,70,32,30.23,30.07,4,1,7,2.17
2013-9-10,75.6,67.2,53.4,69.2,63.0,51.0,94,87,78,30.17,29.98,7,2,12,10.55
2013-9-11,96.3,78.7,68.4,75.7,70.3,67.1,97,78,49,30.09,29.98,2,0,4,5.44
2013-9-12,88.0,74.8,68.0,72.3,68.9,66.2,95,83,57,29.99,29.68,6,2,11,7.77
2013-9-13,87.3,71.2,60.3,70.3,63.8,53.6,98,80,45,29.76,29.58,1,0,6,7.91
2013-9-14,76.8,60.9,50.2,54.5,51.2,47.1,91,72,46,30.07,29.76,5,1,8,3.25
2013-9-15,75.7,58.2,45.0,53.1,48.6,40.6,99,75,32,30.16,30.06,4,1,8,0.48
2013-9-16,77.2,59.3,51.1,57.8,53.1,40.1,97,82,48,30.21,30.01,5,1,8,0.17
2013-9-17,72.1,52.5,41.0,43.7,39.2,36.0,95,64,31,30.39,30.22,7,2,11,0.00
2013-9-18,77.9,54.8,37.0,57.3,44.7,35.9,99,76,29,30.33,30.16,4,1,8,0.00
2013-9-19,83.5,61.0,45.0,66.5,51.1,44.2,99,76,34,30.16,30.05,4,1,8,0.80
2013-9-20,84.2,62.6,48.0,62.4,53.8,47.7,99,78,36,30.08,30.01,4,1,7,0.38
2013-9-21,78.8,64.2,51.4,66.7,59.9,50.6,99,87,62,30.02,29.71,6,1,12,0.96
2013-9-22,77.0,65.4,51.4,66.6,56.1,43.0,96,74,42,29.84,29.62,5,2,15,3.43
2013-9-23,72.5,56.1,44.2,47.0,43.9,39.8,90,66,37,30.00,29.84,6,2,14,2.06
2013-9-24,79.0,55.4,41.2,48.5,43.9,39.0,93,70,29,30.01,29.81,6,2,13,2.21
2013-9-25,80.6,59.1,42.3,55.2,48.7,42.0,99,74,36,29.95,29.84,6,1,10,3.74
2013-9-26,77.4,58.8,47.3,52.8,50.0,46.5,97,75,39,30.10,29.94,3,1,5,7.06
2013-9-27,70.5,57.7,47.3,53.9,51.5,46.5,99,81,53,30.25,30.08,4,1,6,9.71
2013-9-28,84.4,59.4,45.1,58.5,51.0,44.3,99,78,36,30.30,30.23,4,1,6,5.43
2013-9-29,77.7,58.4,48.2,56.9,51.0,45.6,99,81,34,30.24,30.08,3,1,5,0.69
2013-9-30,81.1,59.4,48.6,55.6,50.5,47.5,97,77,35,30.09,29.95,4,1,6,0.00